�������l�o���
Date,Time,MP-1(��Sv/h),MP-2(��Sv/h),MP-3(��Sv/h),MP-4(��Sv/h),MP-5(��Sv/h),MP-6(��Sv/h),MP-7(��Sv/h),MP-8(��Sv/h),����,����(m/s),���J
2020/04/03,00:00,0.680,0.974,0.654,1.187,0.832,0.392,0.685,0.653,���k��,6.0,��
2020/04/03,00:10,0.681,0.973,0.651,1.186,0.832,0.392,0.686,0.652,�k��,6.2,��
2020/04/03,00:20,0.681,0.976,0.654,1.187,0.834,0.391,0.686,0.654,�k��,5.1,��
2020/04/03,00:30,0.680,0.977,0.653,1.185,0.833,0.394,0.686,0.652,���k��,5.4,��
2020/04/03,00:40,0.681,0.975,0.652,1.186,0.833,0.393,0.685,0.654,�k��,3.5,��
2020/04/03,00:50,0.681,0.975,0.653,1.185,0.833,0.391,0.687,0.653,�k��,3.1,��
2020/04/03,01:00,0.680,0.973,0.653,1.187,0.833,0.391,0.687,0.653,�k��,3.0,��
2020/04/03,01:10,0.682,0.973,0.653,1.188,0.831,0.391,0.686,0.653,�k��,2.0,��
2020/04/03,01:20,0.679,0.974,0.654,1.185,0.834,0.391,0.686,0.651,�k��,3.0,��
2020/04/03,01:30,0.681,0.975,0.652,1.185,0.834,0.392,0.685,0.654,�k��,2.0,��
2020/04/03,01:40,0.679,0.976,0.652,1.185,0.833,0.392,0.685,0.653,�k��,1.2,��
2020/04/03,01:50,0.679,0.974,0.655,1.187,0.834,0.392,0.686,0.654,�k��,2.6,��
2020/04/03,02:00,0.680,0.975,0.654,1.187,0.832,0.392,0.685,0.654,�k��,3.4,��
2020/04/03,02:10,0.680,0.974,0.654,1.184,0.833,0.391,0.686,0.653,�k�k��,2.8,��
2020/04/03,02:20,0.679,0.975,0.655,1.185,0.833,0.392,0.684,0.652,�k�k��,2.0,��
2020/04/03,02:30,0.681,0.974,0.653,1.185,0.834,0.392,0.686,0.653,�k,2.0,��
2020/04/03,02:40,0.680,0.973,0.653,1.186,0.833,0.391,0.685,0.652,�k�k��,3.2,��
2020/04/03,02:50,0.678,0.973,0.654,1.187,0.833,0.392,0.684,0.653,�k�k��,4.1,��
2020/04/03,03:00,0.681,0.974,0.654,1.186,0.834,0.391,0.683,0.652,�k�k��,3.4,��
2020/04/03,03:10,0.678,0.974,0.654,1.184,0.834,0.391,0.686,0.652,�k�k��,3.5,��
2020/04/03,03:20,0.678,0.975,0.654,1.183,0.833,0.391,0.685,0.652,�k,2.3,��
2020/04/03,03:30,0.680,0.973,0.652,1.186,0.833,0.392,0.687,0.653,�k�k��,2.2,��
2020/04/03,03:40,0.681,0.973,0.654,1.186,0.836,0.392,0.684,0.653,�k�k��,2.8,��
2020/04/03,03:50,0.679,0.975,0.655,1.186,0.834,0.392,0.685,0.653,�k,2.9,��
2020/04/03,04:00,0.679,0.974,0.654,1.185,0.834,0.392,0.684,0.654,�k�k��,4.1,��
2020/04/03,04:10,0.680,0.974,0.654,1.185,0.833,0.392,0.685,0.651,�k�k��,3.8,��
2020/04/03,04:20,0.680,0.976,0.654,1.184,0.835,0.392,0.683,0.654,�k�k��,4.5,��
2020/04/03,04:30,0.678,0.973,0.654,1.186,0.832,0.392,0.685,0.652,�k�k��,3.6,��
2020/04/03,04:40,0.680,0.974,0.653,1.186,0.834,0.392,0.685,0.653,�k�k��,2.6,��
2020/04/03,04:50,0.680,0.973,0.654,1.185,0.834,0.391,0.684,0.652,���k��,2.2,��
2020/04/03,05:00,0.678,0.973,0.653,1.184,0.835,0.392,0.682,0.653,���쐼,1.4,��
2020/04/03,05:10,0.679,0.971,0.654,1.186,0.834,0.392,0.684,0.653,�쐼,2.3,��
2020/04/03,05:20,0.679,0.975,0.654,1.185,0.837,0.391,0.685,0.651,���쐼,2.6,��
2020/04/03,05:30,0.679,0.971,0.654,1.186,0.836,0.392,0.686,0.653,��쐼,2.6,��
2020/04/03,05:40,0.680,0.974,0.653,1.188,0.835,0.391,0.684,0.651,��쐼,3.8,��
2020/04/03,05:50,0.680,0.973,0.655,1.186,0.834,0.393,0.684,0.653,�쐼,4.9,��
2020/04/03,06:00,0.679,0.972,0.653,1.186,0.832,0.391,0.686,0.653,�쐼,4.7,��
2020/04/03,06:10,0.680,0.973,0.655,1.187,0.836,0.392,0.686,0.654,�쐼,3.5,��
2020/04/03,06:20,0.679,0.974,0.653,1.187,0.835,0.392,0.684,0.651,�쐼,3.8,��
2020/04/03,06:30,0.681,0.974,0.655,1.186,0.836,0.393,0.687,0.654,���쐼,4.5,��
2020/04/03,06:40,0.682,0.975,0.654,1.188,0.835,0.393,0.685,0.654,���쐼,3.2,��
2020/04/03,06:50,0.680,0.974,0.653,1.185,0.836,0.393,0.684,0.653,���쐼,2.8,��
2020/04/03,07:00,0.681,0.975,0.654,1.186,0.836,0.393,0.687,0.653,���쐼,0.9,��
2020/04/03,07:10,0.681,0.973,0.655,1.186,0.834,0.394,0.687,0.652,��,1.1,��
2020/04/03,07:20,0.680,0.977,0.655,1.187,0.835,0.393,0.686,0.653,���쐼,1.5,��
2020/04/03,07:30,0.680,0.976,0.655,1.188,0.837,0.391,0.687,0.653,���쐼,1.5,��
2020/04/03,07:40,0.680,0.975,0.655,1.187,0.835,0.393,0.686,0.652,��,2.3,��
2020/04/03,07:50,0.680,0.975,0.656,1.188,0.835,0.390,0.688,0.652,���k��,2.3,��
2020/04/03,08:00,0.681,0.975,0.654,1.188,0.838,0.390,0.687,0.653,���쐼,3.3,��
2020/04/03,08:10,0.684,0.972,0.657,1.186,0.836,0.390,0.688,0.654,��쐼,0.9,��
2020/04/03,08:20,0.684,0.973,0.656,1.186,0.836,0.390,0.690,0.654,���쓌,1.9,��
2020/04/03,08:30,0.682,0.970,0.656,1.186,0.837,0.390,0.686,0.656,���k��,2.3,��
2020/04/03,08:40,0.682,0.970,0.655,1.188,0.836,0.390,0.688,0.655,�k��,3.5,��
2020/04/03,08:50,0.681,0.970,0.657,1.189,0.838,0.390,0.685,0.655,���k��,2.8,��
2020/04/03,09:00,0.683,0.971,0.658,1.189,0.838,0.390,0.686,0.654,���k��,1.5,��
2020/04/03,09:10,0.683,0.969,0.656,1.188,0.837,0.392,0.684,0.652,���쓌,2.3,��
2020/04/03,09:20,0.681,0.970,0.656,1.188,0.839,0.391,0.686,0.653,�쓌,3.1,��
2020/04/03,09:30,0.681,0.970,0.657,1.190,0.839,0.392,0.687,0.650,�쓌,3.4,��
2020/04/03,09:40,0.683,0.968,0.656,1.190,0.840,0.392,0.685,0.652,�쓌,3.8,��
2020/04/03,09:50,0.684,0.972,0.658,1.189,0.840,0.392,0.685,0.651,��쓌,5.2,��
2020/04/03,10:00,0.682,0.972,0.657,1.188,0.842,0.393,0.686,0.652,��쓌,6.5,��
2020/04/03,10:10,0.683,0.971,0.658,1.190,0.839,0.391,0.685,0.651,��쓌,6.7,��
2020/04/03,10:20,0.685,0.969,0.657,1.191,0.840,0.393,0.686,0.652,��쓌,7.3,��
2020/04/03,10:30,0.682,0.971,0.657,1.188,0.840,0.393,0.685,0.651,��쓌,7.0,��
2020/04/03,10:40,0.683,0.972,0.657,1.190,0.839,0.392,0.686,0.651,��쓌,7.8,��
2020/04/03,10:50,0.681,0.972,0.659,1.190,0.841,0.392,0.684,0.652,��쓌,8.2,��
2020/04/03,11:00,0.683,0.972,0.661,1.191,0.840,0.394,0.684,0.653,��쓌,7.4,��
2020/04/03,11:10,0.682,0.975,0.657,1.190,0.842,0.394,0.687,0.652,��쓌,8.1,��
2020/04/03,11:20,0.682,0.977,0.659,1.193,0.842,0.393,0.688,0.650,��쓌,7.1,��
2020/04/03,11:30,0.684,0.975,0.657,1.192,0.842,0.395,0.688,0.651,��쓌,9.6,��
2020/04/03,11:40,0.684,0.979,0.658,1.189,0.842,0.393,0.687,0.652,��쓌,10.0,��
2020/04/03,11:50,0.683,0.977,0.659,1.190,0.840,0.394,0.687,0.653,��쓌,8.7,��
2020/04/03,12:00,0.684,0.979,0.657,1.188,0.841,0.394,0.686,0.653,��쓌,9.4,��
2020/04/03,12:10,0.683,0.980,0.656,1.191,0.840,0.394,0.687,0.652,��,8.8,��
2020/04/03,12:20,0.684,0.980,0.658,1.192,0.841,0.394,0.688,0.653,��쓌,10.0,��
2020/04/03,12:30,0.684,0.981,0.657,1.192,0.843,0.395,0.688,0.652,��,8.1,��
2020/04/03,12:40,0.687,0.985,0.657,1.194,0.845,0.395,0.690,0.652,��,12.2,��
2020/04/03,12:50,0.684,0.979,0.657,1.193,0.844,0.398,0.688,0.652,��쓌,13.0,��
2020/04/03,13:00,0.686,0.981,0.659,1.191,0.844,0.398,0.687,0.652,��쓌,13.3,��
2020/04/03,13:10,0.685,0.980,0.657,1.192,0.846,0.396,0.687,0.654,��쓌,11.7,��
2020/04/03,13:20,0.685,0.983,0.657,1.193,0.844,0.396,0.688,0.653,��쓌,11.0,��
2020/04/03,13:30,0.685,0.981,0.658,1.193,0.845,0.395,0.689,0.651,��쓌,11.6,��
2020/04/03,13:40,0.685,0.981,0.658,1.194,0.844,0.396,0.689,0.653,��쓌,12.4,��
2020/04/03,13:50,0.685,0.981,0.658,1.195,0.845,0.396,0.688,0.655,��쓌,10.5,��
2020/04/03,14:00,0.685,0.980,0.658,1.191,0.846,0.397,0.689,0.654,��쓌,13.0,��
2020/04/03,14:10,0.686,0.980,0.659,1.195,0.847,0.396,0.688,0.654,��쓌,13.5,��
2020/04/03,14:20,0.686,0.980,0.660,1.193,0.845,0.395,0.690,0.651,��,13.3,��
2020/04/03,14:30,0.687,0.981,0.660,1.196,0.847,0.396,0.689,0.654,��쓌,15.8,��
2020/04/03,14:40,0.688,0.979,0.660,1.195,0.847,0.396,0.689,0.656,��쓌,14.1,��
2020/04/03,14:50,0.686,0.983,0.658,1.195,0.846,0.396,0.689,0.653,��쓌,14.9,��
2020/04/03,15:00,0.685,0.983,0.660,1.195,0.846,0.395,0.688,0.654,��쓌,14.7,��
2020/04/03,15:10,0.687,0.983,0.658,1.196,0.847,0.395,0.688,0.653,��쓌,14.7,��
2020/04/03,15:20,0.685,0.984,0.659,1.194,0.847,0.397,0.689,0.653,��쓌,14.7,��
2020/04/03,15:30,0.687,0.987,0.660,1.194,0.846,0.397,0.688,0.653,��쓌,13.0,��
2020/04/03,15:40,0.688,0.988,0.659,1.197,0.845,0.396,0.690,0.653,��쓌,14.1,��
2020/04/03,15:50,0.685,0.985,0.661,1.193,0.846,0.397,0.688,0.653,��쓌,15.2,��
2020/04/03,16:00,0.687,0.988,0.660,1.194,0.845,0.396,0.688,0.654,��쓌,13.8,��
2020/04/03,16:10,0.689,0.989,0.660,1.193,0.847,0.398,0.689,0.654,��,10.7,��
2020/04/03,16:20,0.689,0.987,0.661,1.191,0.847,0.399,0.689,0.653,��쓌,14.7,��
2020/04/03,16:30,0.687,0.989,0.662,1.193,0.849,0.398,0.690,0.652,��쓌,14.2,��
2020/04/03,16:40,0.686,0.991,0.660,1.194,0.848,0.398,0.690,0.655,��쓌,13.0,��
2020/04/03,16:50,0.688,0.991,0.660,1.192,0.846,0.398,0.689,0.655,��쓌,12.8,��
2020/04/03,17:00,0.689,0.991,0.660,1.195,0.846,0.397,0.688,0.654,��쓌,11.8,��
2020/04/03,17:10,0.691,0.992,0.662,1.193,0.846,0.397,0.688,0.656,��쓌,10.3,��
2020/04/03,17:20,0.689,0.991,0.663,1.194,0.849,0.397,0.687,0.656,��,11.0,��
2020/04/03,17:30,0.691,0.991,0.661,1.196,0.846,0.399,0.687,0.657,��,9.8,��
2020/04/03,17:40,0.691,0.991,0.661,1.195,0.848,0.397,0.687,0.657,��,9.9,��
2020/04/03,17:50,0.688,0.992,0.662,1.198,0.850,0.399,0.688,0.657,��,9.5,��
2020/04/03,18:00,0.690,0.991,0.663,1.196,0.849,0.398,0.688,0.657,��,8.3,��
2020/04/03,18:10,0.689,0.990,0.664,1.194,0.853,0.399,0.689,0.657,��,9.6,��
2020/04/03,18:20,0.689,0.992,0.662,1.196,0.851,0.398,0.689,0.656,��쐼,8.3,��
2020/04/03,18:30,0.690,0.995,0.662,1.196,0.849,0.398,0.688,0.656,��쐼,7.9,��
2020/04/03,18:40,0.692,0.990,0.663,1.197,0.853,0.398,0.690,0.657,��쐼,8.4,��
2020/04/03,18:50,0.690,0.993,0.661,1.195,0.850,0.397,0.689,0.657,��,8.6,��
2020/04/03,19:00,0.688,0.990,0.662,1.196,0.849,0.398,0.690,0.656,��,8.8,��
2020/04/03,19:10,0.690,0.991,0.661,1.196,0.848,0.398,0.691,0.656,��쐼,8.5,��
2020/04/03,19:20,0.689,0.992,0.662,1.196,0.851,0.398,0.691,0.656,��쐼,7.9,��
2020/04/03,19:30,0.691,0.991,0.662,1.196,0.849,0.399,0.690,0.656,��쐼,9.1,��
2020/04/03,19:40,0.690,0.991,0.662,1.196,0.851,0.399,0.691,0.657,��쐼,10.2,��
2020/04/03,19:50,0.691,0.991,0.663,1.197,0.850,0.398,0.691,0.656,��쐼,11.3,��
2020/04/03,20:00,0.690,0.991,0.662,1.194,0.851,0.398,0.690,0.656,��쐼,10.9,��
2020/04/03,20:10,0.691,0.990,0.662,1.197,0.853,0.398,0.691,0.656,��쐼,11.3,��
2020/04/03,20:20,0.688,0.991,0.661,1.198,0.849,0.398,0.690,0.657,��쐼,9.6,��
2020/04/03,20:30,0.690,0.991,0.662,1.196,0.852,0.399,0.689,0.657,��쐼,10.0,��
2020/04/03,20:40,0.689,0.991,0.663,1.194,0.852,0.397,0.690,0.656,��쐼,10.0,��
2020/04/03,20:50,0.690,0.991,0.663,1.195,0.849,0.398,0.691,0.655,��쐼,9.4,��
2020/04/03,21:00,0.690,0.989,0.664,1.196,0.850,0.398,0.690,0.656,��쐼,9.5,��
2020/04/03,21:10,0.689,0.988,0.660,1.197,0.850,0.398,0.691,0.656,��쐼,9.4,��
2020/04/03,21:20,0.691,0.990,0.662,1.195,0.851,0.397,0.692,0.657,��쐼,8.7,��
2020/04/03,21:30,0.690,0.991,0.661,1.198,0.852,0.397,0.690,0.657,��쐼,8.4,��
2020/04/03,21:40,0.690,0.991,0.662,1.195,0.852,0.398,0.690,0.657,��쐼,8.3,��
2020/04/03,21:50,0.690,0.991,0.663,1.196,0.851,0.397,0.691,0.655,��쐼,7.9,��
2020/04/03,22:00,0.689,0.991,0.665,1.195,0.850,0.398,0.690,0.657,��쐼,7.1,��
2020/04/03,22:10,0.690,0.989,0.663,1.195,0.849,0.397,0.691,0.655,��쐼,7.2,��
2020/04/03,22:20,0.690,0.991,0.664,1.195,0.849,0.395,0.691,0.655,��쐼,6.8,��
2020/04/03,22:30,0.690,0.989,0.662,1.196,0.850,0.399,0.691,0.655,��쐼,6.5,��
2020/04/03,22:40,0.690,0.990,0.661,1.197,0.851,0.399,0.691,0.655,��쐼,5.4,��
2020/04/03,22:50,0.690,0.988,0.662,1.195,0.848,0.397,0.693,0.654,��쐼,4.6,��
2020/04/03,23:00,0.689,0.989,0.664,1.194,0.849,0.398,0.691,0.656,��쐼,4.3,��
2020/04/03,23:10,0.690,0.988,0.660,1.196,0.853,0.397,0.691,0.655,��쐼,4.9,��
2020/04/03,23:20,0.689,0.987,0.662,1.195,0.850,0.398,0.689,0.656,��쐼,5.5,��
2020/04/03,23:30,0.690,0.987,0.663,1.196,0.850,0.397,0.690,0.657,��쐼,5.4,��
2020/04/03,23:40,0.690,0.989,0.664,1.196,0.851,0.398,0.689,0.655,��쐼,5.4,��
2020/04/03,23:50,0.689,0.992,0.664,1.195,0.849,0.396,0.690,0.656,��쐼,5.6,��
